Location: Esp�n
(42.4593°N, 0.2047°W)
Time: 13:05:26
(UTC+00:00)

Cosmos 2227 Rocket - Pass Details

Date: 07 June 2020
Orbit: 838 x 846 km, 71.0° (Epoch: 11 July)

Event Time Altitude Azimuth Distance (km) Brightness Sun altitude
Rises 00:01:15 0° 334° (NNW) 3,416 6.4 -24.8°
Reaches altitude 10° 00:03:42 10° 333° (NNW) 2,477 5.4 -24.8°
Maximum altitude 00:09:24 80° 248° (WSW) 864 2.1 -24.7°
Enters shadow 00:10:12 65° 182° (S) 925 2.1 -24.7°
